SV2BZQ-1 Weather Reports


time (UTC)temp
F
wind
direction
speed
knots
gust
knots
rain 1hr
in
rain 24hr
in
rain mn
in
humidity
%
barometer
mb
20260507172606 66 20 0.0 0.0 0.00 0.00 0.00 86 1015.2
20260507172353 66 20 0.0 0.0 0.00 0.00 0.00 86 1015.2
20260507172133 66 20 0.0 0.0 0.00 0.00 0.00 86 1015.2
20260507171702 66 20 0.0 0.0 0.00 0.00 0.00 86 1015.2
20260507171459 66 20 0.0 0.0 0.00 0.00 0.00 86 1015.2
20260507171250 66 20 0.0 0.0 0.00 0.00 0.00 86 1015.1
20260507171054 66 20 0.0 0.0 0.00 0.00 0.00 86 1015.1
20260507170842 66 20 0.0 0.0 0.00 0.00 0.00 86 1015.1
20260507170626 67 20 0.0 0.0 0.00 0.00 0.00 85 1015.1
20260507170433 67 20 0.0 0.0 0.00 0.00 0.00 85 1015.1
20260507170209 67 20 0.0 0.0 0.00 0.00 0.00 85 1015.1
20260507165947 67 20 0.0 0.0 0.00 0.00 0.00 85 1015.1
20260507165736 67 20 0.0 0.0 0.00 0.00 0.00 85 1015.3
20260507165532 67 20 0.0 0.0 0.00 0.00 0.00 85 1015.3
20260507165320 67 20 0.0 0.0 0.00 0.00 0.00 84 1015.3
20260507165114 67 20 0.0 0.0 0.00 0.00 0.00 85 1015.3
20260507164859 67 20 0.0 1.7 0.00 0.00 0.00 84 1015.3
20260507164653 67 20 0.0 1.7 0.00 0.00 0.00 84 1015.3
20260507164439 67 20 0.0 1.7 0.00 0.00 0.00 83 1015.3
20260507164232 67 20 0.0 1.7 0.00 0.00 0.00 83 1015.1
20260507164055 67 20 0.0 1.7 0.00 0.00 0.00 83 1015.1
20260507163925 67 20 0.0 0.0 0.00 0.00 0.00 82 1015.1
20260507163615 67 20 0.0 0.0 0.00 0.00 0.00 82 1015.1
20260507163415 67 20 0.0 1.7 0.00 0.00 0.00 81 1015.1
20260507163155 67 20 0.0 1.7 0.00 0.00 0.00 81 1015.1
20260507162945 67 20 0.0 2.6 0.00 0.00 0.00 82 1015.1
20260507162534 67 20 0.0 2.6 0.00 0.00 0.00 81 1015.4
20260507162334 67 20 0.0 2.6 0.00 0.00 0.00 81 1015.4
20260507162138 67 20 0.0 2.6 0.00 0.00 0.00 81 1015.4
20260507161932 67 350 0.0 0.0 0.00 0.00 0.00 81 1015.4
20260507161520 67 291 0.0 0.0 0.00 0.00 0.00 82 1015.4
20260507161359 67 291 0.0 0.0 0.00 0.00 0.00 81 1015.6
20260507161033 67 291 0.0 0.0 0.00 0.00 0.00 81 1015.6
20260507160830 67 291 0.0 0.9 0.00 0.00 0.00 81 1015.6
20260507160551 67 291 0.0 0.9 0.00 0.00 0.00 81 1015.6
20260507160348 67 291 0.0 0.9 0.00 0.00 0.00 81 1015.6
20260507160116 67 291 0.0 0.9 0.00 0.00 0.00 81 1015.6
20260507155910 68 291 0.0 0.0 0.00 0.00 0.00 81 1015.5
20260507155436 68 0 0.0 0.0 0.00 0.00 0.00 81 1015.5
20260507155238 68 0 0.0 0.0 0.00 0.00 0.00 81 1015.5
20260507155037 68 0 0.0 0.0 0.00 0.00 0.00 81 1015.5
20260507154836 68 0 0.0 0.0 0.00 0.00 0.00 80 1015.5
20260507154605 68 0 0.0 0.0 0.00 0.00 0.00 80 1015.5
20260507154348 68 0 0.0 0.0 0.00 0.00 0.00 80 1015.9
20260507154139 68 0 0.0 1.7 0.00 0.00 0.00 80 1015.9
20260507153908 68 0 0.0 2.6 0.00 0.00 0.00 80 1015.9
20260507153648 68 0 0.0 2.6 0.00 0.00 0.00 80 1015.9
20260507153430 68 0 0.9 2.6 0.00 0.00 0.00 80 1015.9
20260507153205 68 315 0.9 2.6 0.00 0.00 0.00 80 1015.9
20260507153009 68 359 0.0 2.6 0.00 0.00 0.00 80 1015.9
20260507152759 68 325 0.0 2.6 0.00 0.00 0.00 79 1015.9
20260507152539 68 322 0.0 2.6 0.00 0.00 0.00 79 1015.9
20260507152336 68 328 0.0 1.7 0.00 0.00 0.00 79 1015.9
20260507152125 68 296 0.0 1.7 0.00 0.00 0.00 79 1015.9
20260507151901 68 296 0.0 1.7 0.00 0.00 0.00 78 1015.9
20260507151700 68 296 0.0 1.7 0.00 0.00 0.00 78 1015.9
20260507151234 68 31 0.0 0.0 0.00 0.00 0.00 77 1016.0
20260507151046 68 28 0.0 0.0 0.00 0.00 0.00 77 1016.0
20260507150837 68 31 0.0 0.0 0.00 0.00 0.00 77 1016.0
20260507150635 68 40 0.0 0.0 0.00 0.00 0.00 77 1016.0
20260507150428 68 42 0.0 0.0 0.00 0.00 0.00 77 1016.0
20260507150228 68 45 0.0 0.0 0.00 0.00 0.00 77 1016.0
20260507150035 68 45 0.0 0.0 0.00 0.00 0.00 77 1016.0
20260507145828 68 40 0.0 0.0 0.00 0.00 0.00 76 1016.1
20260507145624 68 47 0.0 0.0 0.00 0.00 0.00 76 1016.1
20260507145420 68 44 0.0 0.0 0.00 0.00 0.00 77 1016.1
20260507145210 68 34 0.0 0.0 0.00 0.00 0.00 77 1016.1
20260507145016 68 30 0.0 0.0 0.00 0.00 0.00 76 1016.1
20260507144821 68 40 0.0 0.0 0.00 0.00 0.00 77 1016.1
20260507144651 68 24 0.0 0.0 0.00 0.00 0.00 76 1016.1
20260507144410 68 25 0.0 0.9 0.00 0.00 0.00 76 1016.0
20260507144217 68 40 0.0 2.6 0.00 0.00 0.00 76 1016.0
20260507144024 68 42 0.0 2.6 0.00 0.00 0.00 76 1016.0
20260507143804 68 51 0.0 2.6 0.00 0.00 0.00 76 1016.0
20260507143605 68 23 0.0 2.6 0.00 0.00 0.00 76 1016.0
20260507143404 68 86 0.0 2.6 0.00 0.00 0.00 76 1016.0
20260507143207 68 38 0.0 0.9 0.00 0.00 0.00 76 1016.0
20260507143017 69 69 0.0 0.9 0.00 0.00 0.00 76 1016.0
20260507142804 69 59 0.0 0.9 0.00 0.00 0.00 76 1016.1
20260507142608 69 62 0.0 0.9 0.00 0.00 0.00 76 1016.1
20260507142352 69 62 0.0 0.0 0.00 0.00 0.00 76 1016.1
20260507142201 69 65 0.0 0.0 0.00 0.00 0.00 76 1016.1
20260507142003 68 35 0.0 0.0 0.00 0.00 0.00 76 1016.1
20260507141802 68 59 0.0 0.0 0.00 0.00 0.00 75 1016.1
20260507141557 68 66 0.0 0.0 0.00 0.00 0.00 75 1016.1
20260507141348 68 34 0.0 0.0 0.00 0.00 0.00 75 1016.0
20260507141137 68 34 0.0 0.0 0.00 0.00 0.00 75 1016.0
20260507140713 68 34 0.0 1.7 0.00 0.00 0.00 75 1016.0
20260507140508 68 34 0.0 1.7 0.00 0.00 0.00 75 1016.0
20260507140301 68 34 0.0 1.7 0.00 0.00 0.00 74 1016.0
20260507140045 68 23 0.0 1.7 0.00 0.00 0.00 74 1016.0
20260507135830 68 37 0.0 0.9 0.00 0.00 0.00 74 1016.0
20260507135628 68 37 0.0 0.0 0.00 0.00 0.00 74 1016.0
20260507135208 68 37 0.0 2.6 0.00 0.00 0.00 73 1016.0
20260507135000 68 37 0.0 4.3 0.00 0.00 0.00 74 1016.0
20260507134802 68 37 0.0 4.3 0.00 0.00 0.00 74 1016.0
20260507134537 68 37 0.9 4.3 0.00 0.00 0.00 74 1016.0
20260507134329 68 37 0.9 4.3 0.00 0.00 0.00 74 1016.0
20260507134130 68 35 0.0 2.6 0.00 0.00 0.00 74 1016.0
20260507133943 68 35 0.0 2.6 0.00 0.00 0.00 74 1016.0
20260507133738 68 35 0.0 2.6 0.00 0.00 0.00 74 1016.0
20260507133514 68 65 0.9 2.6 0.00 0.00 0.00 74 1016.0
20260507133313 68 65 0.9 2.6 0.00 0.00 0.00 74 1015.9
20260507133110 68 65 0.9 2.6 0.00 0.00 0.00 74 1015.9
20260507132859 68 30 1.7 4.3 0.00 0.00 0.00 74 1016.0
20260507132711 68 45 1.7 4.3 0.00 0.00 0.00 73 1016.0
20260507132546 68 34 0.9 4.3 0.00 0.00 0.00 73 1016.0
20260507132245 68 45 0.9 4.3 0.00 0.00 0.00 74 1016.0
20260507132109 68 35 0.9 4.3 0.00 0.00 0.00 73 1016.0
20260507131941 68 40 0.9 3.5 0.00 0.00 0.00 74 1016.0
20260507131637 68 44 0.0 4.3 0.00 0.00 0.00 74 1016.0
20260507131429 67 35 0.0 4.3 0.00 0.00 0.00 74 1016.0
20260507131223 67 38 0.0 4.3 0.00 0.00 0.00 74 1016.0
20260507131014 67 40 0.0 4.3 0.00 0.00 0.00 74 1016.0
20260507130803 67 40 0.0 4.3 0.00 0.00 0.00 74 1016.0
20260507130555 68 40 0.0 2.6 0.00 0.00 0.00 74 1016.0
20260507130400 68 40 0.0 2.6 0.00 0.00 0.00 74 1016.0
20260507130140 68 40 0.0 2.6 0.00 0.00 0.00 74 1016.0
20260507125929 68 34 0.0 0.9 0.00 0.00 0.00 75 1016.0
20260507125723 68 11 0.0 0.9 0.00 0.00 0.00 75 1016.5
20260507125523 68 11 0.0 0.0 0.00 0.00 0.00 75 1016.5
20260507125327 67 11 0.0 0.9 0.00 0.00 0.00 75 1016.5
20260507125109 67 11 0.0 0.9 0.00 0.00 0.00 75 1016.5
20260507124902 67 11 0.0 2.6 0.00 0.00 0.00 75 1016.5
20260507124702 67 11 0.0 2.6 0.00 0.00 0.00 75 1016.5
20260507124507 67 11 0.0 4.3 0.00 0.00 0.00 75 1016.5
20260507124342 67 11 0.9 4.3 0.00 0.00 0.00 75 1016.7
20260507124031 67 11 0.9 4.3 0.00 0.00 0.00 75 1016.7
20260507123820 67 3 0.9 4.3 0.00 0.00 0.00 76 1016.7
20260507123619 67 340 0.9 4.3 0.00 0.00 0.00 76 1016.7
20260507123427 67 0 0.9 4.3 0.00 0.00 0.00 76 1016.7
20260507123007 66 343 0.9 4.3 0.00 0.00 0.00 76 1016.7
20260507122757 66 315 0.9 4.3 0.00 0.00 0.00 76 1016.2
20260507122602 66 340 0.9 4.3 0.00 0.00 0.00 76 1016.2
20260507122427 66 313 0.9 4.3 0.00 0.00 0.00 76 1016.2
20260507122147 66 312 1.7 5.2 0.00 0.00 0.00 75 1016.2
20260507121934 66 295 1.7 5.2 0.00 0.00 0.00 76 1016.2
20260507121736 66 325 2.6 5.2 0.00 0.00 0.00 76 1016.2
20260507121530 66 339 2.6 6.1 0.00 0.00 0.00 76 1016.2
20260507121324 66 356 2.6 6.1 0.00 0.00 0.00 76 1016.8
20260507121126 66 336 2.6 6.1 0.00 0.00 0.00 76 1016.8
20260507120931 66 353 1.7 6.1 0.00 0.00 0.00 76 1016.8
20260507120727 66 32 1.7 6.1 0.00 0.00 0.00 76 1016.8
20260507120529 66 0 1.7 5.2 0.00 0.00 0.00 76 1016.8
20260507120329 66 21 1.7 5.2 0.00 0.00 0.00 76 1016.8
20260507120130 66 27 1.7 5.2 0.00 0.00 0.00 76 1016.8
20260507115921 66 38 1.7 5.2 0.00 0.00 0.00 76 1016.8
20260507115722 66 27 1.7 6.1 0.00 0.00 0.00 76 1017.4
20260507115516 66 11 1.7 6.1 0.00 0.00 0.00 77 1017.4
20260507115313 66 301 1.7 6.1 0.00 0.00 0.00 77 1017.4
20260507115118 66 325 1.7 6.1 0.00 0.00 0.00 78 1017.4
20260507114914 66 306 1.7 6.1 0.00 0.00 0.00 78 1017.4
20260507114723 66 305 1.7 6.1 0.00 0.00 0.00 80 1017.4
20260507114537 66 0 2.6 6.1 0.00 0.00 0.00 80 1017.4
20260507114357 65 337 2.6 6.1 0.00 0.00 0.00 80 1017.4
20260507114105 65 6 2.6 6.1 0.00 0.00 0.00 80 1017.4
20260507113911 65 329 2.6 6.1 0.00 0.00 0.00 81 1017.4
20260507113712 65 359 2.6 6.1 0.00 0.00 0.00 81 1017.4
20260507113518 65 0 2.6 6.1 0.00 0.00 0.00 81 1017.4
20260507113301 65 333 1.7 6.1 0.00 0.00 0.00 82 1017.4
20260507113102 65 323 1.7 6.1 0.00 0.00 0.00 82 1017.4
20260507112900 66 326 1.7 6.1 0.00 0.00 0.00 82 1017.3
20260507112705 66 343 0.9 6.1 0.00 0.00 0.00 84 1017.3
20260507112457 66 323 0.9 5.2 0.00 0.00 0.00 83 1017.3
20260507112256 66 318 0.9 4.3 0.00 0.00 0.00 83 1017.3
20260507112100 66 292 0.9 4.3 0.00 0.00 0.00 83 1017.3
20260507111901 66 350 0.9 4.3 0.00 0.00 0.00 83 1017.3
20260507111433 66 13 0.9 4.3 0.00 0.00 0.00 82 1017.3
20260507111233 66 337 0.9 4.3 0.00 0.00 0.00 82 1017.4
20260507111022 66 59 0.9 2.6 0.00 0.00 0.00 82 1017.4
20260507110829 66 346 0.9 2.6 0.00 0.00 0.00 81 1017.4
20260507110423 66 316 0.0 2.6 0.00 0.00 0.00 80 1017.4
20260507110259 66 339 0.9 2.6 0.00 0.00 0.00 80 1017.4
20260507105951 66 343 0.9 4.3 0.00 0.00 0.00 80 1017.4
20260507105752 66 311 0.9 4.3 0.00 0.00 0.00 79 1017.4
20260507105126 66 332 0.9 4.3 0.00 0.00 0.00 78 1017.4
20260507104925 66 0 0.9 4.3 0.00 0.00 0.00 77 1017.4
20260507104720 66 347 0.9 4.3 0.00 0.00 0.00 77 1017.4
20260507104520 66 342 0.9 4.3 0.00 0.00 0.00 76 1017.4
20260507104315 66 328 0.9 4.3 0.00 0.00 0.00 76 1017.4
20260507104116 66 325 0.9 4.3 0.00 0.00 0.00 75 1017.4
20260507103902 66 325 0.9 4.3 0.00 0.00 0.00 75 1017.4
20260507103656 66 328 0.9 5.2 0.00 0.00 0.00 75 1017.4
20260507103436 66 299 0.9 5.2 0.00 0.00 0.00 74 1017.4
20260507103243 66 302 1.7 5.2 0.00 0.00 0.00 74 1017.4
20260507102816 66 344 1.7 5.2 0.00 0.00 0.00 73 1017.2
20260507102612 66 320 0.9 4.3 0.00 0.00 0.00 73 1017.2
20260507102412 67 347 0.9 4.3 0.00 0.00 0.00 72 1017.2
20260507102159 67 11 0.9 5.2 0.00 0.00 0.00 72 1017.2
20260507101950 67 333 0.9 5.2 0.00 0.00 0.00 71 1017.2
20260507101803 67 350 0.9 5.2 0.00 0.00 0.00 71 1017.2
20260507101645 67 336 0.9 5.2 0.00 0.00 0.00 71 1017.2
20260507101347 67 349 0.0 4.3 0.00 0.00 0.00 71 1017.2
20260507101147 67 344 0.0 4.3 0.00 0.00 0.00 72 1017.2
20260507100947 67 0 0.0 4.3 0.00 0.00 0.00 72 1017.2
20260507100750 67 21 0.0 2.6 0.00 0.00 0.00 72 1017.2
20260507100548 67 21 0.0 2.6 0.00 0.00 0.00 72 1017.2
20260507100401 67 24 0.0 2.6 0.00 0.00 0.00 72 1017.2
20260507100124 67 3 0.0 2.6 0.00 0.00 0.00 72 1017.2
20260507095953 67 3 0.0 2.6 0.00 0.00 0.00 72 1017.1
20260507095715 67 325 0.0 3.5 0.00 0.00 0.00 71 1017.1
20260507095543 67 0 0.9 4.3 0.00 0.00 0.00 71 1017.1
20260507095257 67 11 0.9 4.3 0.00 0.00 0.00 70 1017.1
20260507095137 67 11 1.7 4.3 0.00 0.00 0.00 70 1017.1
20260507094800 67 10 1.7 4.3 0.00 0.00 0.00 69 1017.1
20260507094620 67 0 1.7 5.2 0.00 0.00 0.00 69 1017.1
20260507094327 67 342 2.6 5.2 0.00 0.00 0.00 69 1017.0
20260507094125 67 0 2.6 5.2 0.00 0.00 0.00 69 1017.0
20260507093728 67 0 2.6 6.1 0.00 0.00 0.00 69 1017.0
20260507093513 67 0 2.6 6.1 0.00 0.00 0.00 69 1017.0
20260507093308 67 344 2.6 6.1 0.00 0.00 0.00 69 1017.0
20260507093105 67 352 2.6 6.1 0.00 0.00 0.00 68 1017.0
20260507092703 67 333 1.7 5.2 0.00 0.00 0.00 69 1016.9
20260507092505 67 356 1.7 5.2 0.00 0.00 0.00 69 1016.9
20260507092312 67 0 1.7 6.1 0.00 0.00 0.00 69 1016.9
20260507092129 67 330 1.7 6.1 0.00 0.00 0.00 69 1016.9
20260507092002 67 0 1.7 6.1 0.00 0.00 0.00 69 1016.9
20260507091707 67 354 1.7 6.1 0.00 0.00 0.00 69 1016.9
20260507091545 67 350 1.7 6.1 0.00 0.00 0.00 69 1016.9
20260507091246 67 0 1.7 5.2 0.00 0.00 0.00 70 1016.5
20260507091048 67 0 1.7 5.2 0.00 0.00 0.00 70 1016.5
20260507090843 67 326 1.7 5.2 0.00 0.00 0.00 70 1016.5
20260507090645 67 0 1.7 5.2 0.00 0.00 0.00 70 1016.5
20260507090447 67 329 1.7 5.2 0.00 0.00 0.00 70 1016.5
20260507090240 67 336 1.7 5.2 0.00 0.00 0.00 70 1016.5
20260507090045 67 18 1.7 6.1 0.00 0.00 0.00 70 1016.5
20260507085842 67 0 1.7 6.1 0.00 0.00 0.00 70 1016.3
20260507085644 67 0 1.7 6.1 0.00 0.00 0.00 70 1016.3
20260507085447 67 27 1.7 6.1 0.00 0.00 0.00 70 1016.3
20260507085300 67 0 1.7 6.1 0.00 0.00 0.00 70 1016.3
20260507085123 67 3 1.7 6.1 0.00 0.00 0.00 71 1016.3
20260507084906 67 17 1.7 5.2 0.00 0.00 0.00 71 1016.3
20260507084620 67 25 1.7 5.2 0.00 0.00 0.00 71 1016.3
20260507084412 67 20 2.6 5.2 0.00 0.00 0.00 70 1016.3
20260507084215 67 14 2.6 5.2 0.00 0.00 0.00 70 1016.1
20260507084010 67 0 1.7 5.2 0.00 0.00 0.00 71 1016.1
20260507083606 67 0 2.6 6.1 0.00 0.00 0.00 70 1016.1
20260507083407 67 20 2.6 6.1 0.00 0.00 0.00 70 1016.1
20260507083221 67 1 2.6 6.1 0.00 0.00 0.00 70 1016.1
20260507083023 67 11 2.6 6.1 0.00 0.00 0.00 69 1016.1
20260507082836 67 47 2.6 6.1 0.00 0.00 0.00 69 1016.0
20260507082704 67 352 2.6 6.1 0.00 0.00 0.00 69 1016.0
20260507082435 68 357 1.7 7.0 0.00 0.00 0.00 69 1016.0
20260507082200 68 0 1.7 7.0 0.00 0.00 0.00 68 1016.0
20260507081958 68 20 1.7 7.0 0.00 0.00 0.00 68 1016.0
20260507081750 68 10 1.7 7.0 0.00 0.00 0.00 67 1016.0
20260507081550 68 31 1.7 7.0 0.00 0.00 0.00 67 1016.0
20260507081354 68 356 0.9 5.2 0.00 0.00 0.00 67 1016.0
20260507081141 68 0 1.7 5.2 0.00 0.00 0.00 67 1016.0
20260507080940 69 34 0.9 5.2 0.00 0.00 0.00 66 1016.0
20260507080739 68 356 1.7 5.2 0.00 0.00 0.00 66 1016.0
20260507080542 68 24 1.7 5.2 0.00 0.00 0.00 66 1016.0
20260507080337 68 320 1.7 5.2 0.00 0.00 0.00 66 1016.0
20260507080127 68 343 0.9 5.2 0.00 0.00 0.00 66 1016.0
20260507075928 68 11 0.9 4.3 0.00 0.00 0.00 66 1016.0
20260507075728 68 342 0.9 4.3 0.00 0.00 0.00 67 1015.9
20260507075526 68 257 0.9 4.3 0.00 0.00 0.00 66 1015.9
20260507075325 68 291 0.9 4.3 0.00 0.00 0.00 67 1015.9
20260507075140 68 281 0.9 4.3 0.00 0.00 0.00 68 1015.8
20260507075011 68 336 0.9 5.2 0.00 0.00 0.00 68 1015.8
20260507074838 68 13 1.7 6.1 0.00 0.00 0.00 68 1015.8
20260507074651 68 299 1.7 6.1 0.00 0.00 0.00 68 1015.8
20260507074518 67 356 2.6 6.1 0.00 0.00 0.00 69 1015.8
20260507074324 67 328 2.6 6.1 0.00 0.00 0.00 69 1015.8
20260507074115 67 305 1.7 6.1 0.00 0.00 0.00 69 1015.8
20260507073836 67 272 1.7 6.1 0.00 0.00 0.00 70 1015.8
20260507073634 67 312 1.7 6.1 0.00 0.00 0.00 70 1015.8
20260507073406 67 294 0.9 5.2 0.00 0.00 0.00 71 1015.8
20260507073155 67 284 1.7 6.1 0.00 0.00 0.00 72 1015.8
20260507072924 67 284 1.7 6.1 0.00 0.00 0.00 73 1015.9
20260507072707 67 18 2.6 6.1 0.00 0.00 0.00 74 1015.9
20260507072516 66 333 2.6 6.1 0.00 0.00 0.00 73 1015.9
20260507072300 66 0 1.7 6.1 0.00 0.00 0.00 74 1015.9
20260507072106 66 313 1.7 7.0 0.00 0.00 0.00 75 1015.9
20260507071841 66 0 1.7 7.0 0.00 0.00 0.00 75 1015.9
20260507071635 66 299 2.6 7.0 0.00 0.00 0.00 76 1015.9
20260507071421 66 319 2.6 7.0 0.00 0.00 0.00 76 1015.9
20260507071221 66 332 2.6 7.8 0.00 0.00 0.00 76 1015.8
20260507071018 65 335 2.6 7.8 0.00 0.00 0.00 77 1015.8
20260507070813 65 326 2.6 7.8 0.00 0.00 0.00 78 1015.8
20260507070617 65 340 1.7 7.8 0.00 0.00 0.00 78 1015.8
20260507070410 65 318 1.7 7.8 0.00 0.00 0.00 79 1015.8
20260507070215 65 316 1.7 5.2 0.00 0.00 0.00 79 1015.8
20260507070020 65 289 0.9 5.2 0.00 0.00 0.00 80 1015.8
20260507065822 65 328 0.9 5.2 0.00 0.00 0.00 80 1015.7
20260507065610 65 318 0.9 5.2 0.00 0.00 0.00 81 1015.7
20260507065412 65 315 1.7 5.2 0.00 0.00 0.00 81 1015.7
20260507065204 65 357 1.7 5.2 0.00 0.00 0.00 82 1015.7
20260507065010 64 0 1.7 5.2 0.00 0.00 0.00 82 1015.7
20260507064818 64 0 2.6 6.1 0.00 0.00 0.00 82 1015.7
20260507064633 64 3 2.6 6.1 0.00 0.00 0.00 82 1015.7
20260507064509 64 333 1.7 6.1 0.00 0.00 0.00 82 1015.9
20260507064233 64 0 1.7 6.1 0.00 0.00 0.00 82 1015.9
20260507064102 64 40 0.9 6.1 0.00 0.00 0.00 82 1015.9
20260507063933 64 0 0.9 5.2 0.00 0.00 0.00 82 1015.9
20260507063649 64 21 0.9 5.2 0.00 0.00 0.00 83 1015.9
20260507063451 64 34 0.9 5.2 0.00 0.00 0.00 82 1015.9
20260507063158 64 37 0.0 2.6 0.00 0.00 0.00 83 1015.9
20260507062950 64 31 0.9 2.6 0.00 0.00 0.00 83 1015.9
20260507062753 64 23 0.9 2.6 0.00 0.00 0.00 83 1015.9
20260507062529 64 0 0.9 2.6 0.00 0.00 0.00 83 1015.9
20260507062343 64 0 0.9 2.6 0.00 0.00 0.00 83 1015.9
20260507062126 64 346 0.9 3.5 0.00 0.00 0.00 83 1015.9
20260507061925 64 339 0.9 5.2 0.00 0.00 0.00 83 1015.9
20260507061522 64 49 1.7 5.2 0.00 0.00 0.00 83 1015.9
20260507061335 64 356 1.7 5.2 0.00 0.00 0.00 83 1015.8
20260507061118 63 34 1.7 5.2 0.00 0.00 0.00 83 1015.8
20260507060919 63 0 1.7 5.2 0.00 0.00 0.00 83 1015.8
20260507060718 63 18 1.7 5.2 0.00 0.00 0.00 83 1015.8
20260507060543 63 27 1.7 5.2 0.00 0.00 0.00 83 1015.8
20260507060350 63 28 1.7 5.2 0.00 0.00 0.00 83 1015.8
20260507060147 63 32 1.7 5.2 0.00 0.00 0.00 83 1015.8
20260507055949 63 38 1.7 5.2 0.00 0.00 0.00 83 1015.7
20260507055749 63 30 1.7 5.2 0.00 0.00 0.00 84 1015.7
20260507055605 64 38 1.7 5.2 0.00 0.00 0.00 84 1015.7
20260507055310 63 30 1.7 5.2 0.00 0.00 0.00 84 1015.7
20260507055059 63 34 1.7 5.2 0.00 0.00 0.00 85 1015.7
20260507054916 63 13 2.6 5.2 0.00 0.00 0.00 85 1015.7
20260507054743 63 13 2.6 5.2 0.00 0.00 0.00 85 1015.7
20260507054609 63 18 2.6 6.1 0.00 0.00 0.00 86 1015.7
20260507054438 62 4 2.6 6.1 0.00 0.00 0.00 86 1015.6
20260507054154 62 357 3.5 6.1 0.00 0.00 0.00 86 1015.6
20260507054027 62 14 2.6 6.1 0.00 0.00 0.00 86 1015.6
20260507053841 62 6 2.6 6.1 0.00 0.00 0.00 86 1015.6
20260507053540 62 8 2.6 5.2 0.00 0.00 0.00 86 1015.6
20260507053340 62 8 2.6 5.2 0.00 0.00 0.00 86 1015.6
20260507053044 62 14 1.7 5.2 0.00 0.00 0.00 86 1015.6
20260507052840 62 4 1.7 5.2 0.00 0.00 0.00 86 1015.4
20260507052648 61 6 1.7 4.3 0.00 0.00 0.00 86 1015.4
20260507052515 61 10 1.7 2.6 0.00 0.00 0.00 86 1015.4
20260507052340 61 14 1.7 4.3 0.00 0.00 0.00 86 1015.4
20260507052032 61 20 1.7 4.3 0.00 0.00 0.00 86 1015.4
20260507051846 61 32 0.9 4.3 0.00 0.00 0.00 87 1015.4
20260507051625 61 21 0.9 4.3 0.00 0.00 0.00 87 1015.4
20260507051418 61 17 0.9 4.3 0.00 0.00 0.00 87 1015.4
20260507051015 61 31 0.0 2.6 0.00 0.00 0.00 88 1015.4
20260507050819 61 23 0.0 2.6 0.00 0.00 0.00 88 1015.4
20260507050620 61 13 0.0 0.9 0.00 0.00 0.00 88 1015.3
20260507050422 60 13 0.0 0.0 0.00 0.00 0.00 89 1015.3
20260507045950 60 13 0.0 0.0 0.00 0.00 0.00 89 1015.3
20260507045753 60 13 0.0 0.0 0.00 0.00 0.00 89 1015.2
20260507045600 59 14 0.0 0.0 0.00 0.00 0.00 89 1015.2
20260507045338 59 14 0.0 0.0 0.00 0.00 0.00 88 1015.2
20260507045140 59 23 0.0 0.0 0.00 0.00 0.00 88 1015.2
20260507044928 59 27 0.0 0.0 0.00 0.00 0.00 88 1015.2
20260507044744 59 14 0.0 0.0 0.00 0.00 0.00 88 1015.2
20260507044557 59 17 0.0 0.0 0.00 0.00 0.00 88 1015.2
20260507044418 59 45 0.0 0.0 0.00 0.00 0.00 88 1015.0
20260507044145 59 48 0.0 0.0 0.00 0.00 0.00 88 1015.0
20260507043919 59 14 0.0 0.0 0.00 0.00 0.00 88 1015.0
20260507043712 59 14 0.0 0.0 0.00 0.00 0.00 89 1015.0
20260507043518 59 14 0.0 0.0 0.00 0.00 0.00 89 1015.0
20260507043254 59 13 0.0 0.0 0.00 0.00 0.00 89 1015.0
20260507043057 59 13 0.0 0.0 0.00 0.00 0.00 89 1015.0
20260507042850 59 13 0.0 0.0 0.00 0.00 0.00 90 1015.2
20260507042646 59 13 0.0 0.0 0.00 0.00 0.00 89 1015.2
20260507042421 59 13 0.0 0.0 0.00 0.00 0.00 90 1015.2
20260507042209 59 20 0.0 0.0 0.00 0.00 0.00 90 1015.2
20260507042008 59 27 0.0 0.0 0.00 0.00 0.00 90 1015.2
20260507041813 58 44 0.0 0.0 0.00 0.00 0.00 89 1015.2
20260507041618 58 25 0.0 0.0 0.00 0.00 0.00 89 1015.2
20260507041416 58 30 0.0 0.0 0.00 0.00 0.00 89 1014.9
20260507041259 58 13 0.0 0.0 0.00 0.00 0.00 89 1014.9
20260507041007 58 13 0.0 0.0 0.00 0.00 0.00 89 1014.9
20260507040751 58 13 0.0 0.0 0.00 0.00 0.00 89 1014.9
20260507040416 58 13 0.0 0.0 0.00 0.00 0.00 89 1014.9
20260507040210 57 13 0.0 0.0 0.00 0.00 0.00 89 1014.9
20260507040011 57 13 0.0 0.0 0.00 0.00 0.00 88 1014.9
20260507035925 57 13 0.0 2.6 0.00 0.00 0.00 84 1014.6
20260507035814 57 13 0.0 0.0 0.00 0.00 0.00 88 1014.8
20260507035548 57 13 0.0 0.9 0.00 0.00 0.00 88 1014.8
20260507035420 57 13 0.0 0.9 0.00 0.00 0.00 88 1014.8
20260507035221 57 0 0.0 0.9 0.00 0.00 0.00 87 1014.8
20260507034925 57 0 0.0 1.7 0.00 0.00 0.00 87 1014.8
20260507034740 57 0 0.0 1.7 0.00 0.00 0.00 87 1014.8
20260507034629 57 0 0.0 1.7 0.00 0.00 0.00 87 1014.8
20260507034405 57 349 0.0 0.0 0.00 0.00 0.00 86 1014.8
20260507034258 57 349 0.0 0.0 0.00 0.00 0.00 86 1014.8
20260507034127 57 349 0.0 0.0 0.00 0.00 0.00 86 1014.8
20260507034023 57 349 0.0 0.0 0.00 0.00 0.00 86 1014.8
20260507033905 57 349 0.0 2.6 0.00 0.00 0.00 86 1014.7
20260507033738 57 349 0.0 2.6 0.00 0.00 0.00 86 1014.7
20260507033445 57 0 0.9 2.6 0.00 0.00 0.00 86 1014.7
20260507033313 57 0 0.9 2.6 0.00 0.00 0.00 85 1014.7
20260507033108 57 359 0.9 2.6 0.00 0.00 0.00 85 1014.7
20260507032718 57 353 0.9 2.6 0.00 0.00 0.00 85 1014.7
20260507032010 57 325 0.0 1.7 0.00 0.00 0.00 84 1014.6
20260507031838 57 13 0.0 2.6 0.00 0.00 0.00 84 1014.6
20260507031556 57 14 0.0 2.6 0.00 0.00 0.00 84 1014.6
20260507031310 57 13 0.0 2.6 0.00 0.00 0.00 84 1014.6
20260507030818 57 16 0.0 2.6 0.00 0.00 0.00 84 1014.6
20260507030620 57 295 0.0 0.0 0.00 0.00 0.00 84 1014.4
20260507030321 57 295 0.0 0.0 0.00 0.00 0.00 84 1014.4
20260507030138 57 294 0.0 0.0 0.00 0.00 0.00 84 1014.4
20260507025905 57 285 0.0 0.0 0.00 0.00 0.00 84 1014.4
20260507025645 57 285 0.0 0.0 0.00 0.00 0.00 84 1014.4
20260507025143 57 285 0.0 0.0 0.00 0.00 0.00 84 1014.4
20260507024938 58 285 0.0 0.0 0.00 0.00 0.00 84 1014.4
20260507024739 58 285 0.0 0.0 0.00 0.00 0.00 84 1014.4
20260507024417 58 285 0.0 0.0 0.00 0.00 0.00 85 1014.4
20260507024016 58 285 0.0 0.0 0.00 0.00 0.00 85 1014.4
20260507023708 58 287 0.0 0.0 0.00 0.00 0.00 85 1014.4
20260507023331 58 285 0.0 0.0 0.00 0.00 0.00 85 1014.4
20260507023101 58 282 0.0 0.0 0.00 0.00 0.00 85 1014.4
20260507022746 58 282 0.0 0.0 0.00 0.00 0.00 85 1014.3
20260507022604 58 282 0.0 0.0 0.00 0.00 0.00 85 1014.3
20260507022407 58 282 0.0 0.0 0.00 0.00 0.00 86 1014.3
20260507022159 58 282 0.0 0.0 0.00 0.00 0.00 86 1014.3
20260507021902 58 282 0.0 0.0 0.00 0.00 0.00 86 1014.3
20260507021656 58 282 0.0 0.0 0.00 0.00 0.00 86 1014.3
20260507021456 59 282 0.0 0.0 0.00 0.00 0.00 86 1014.3
20260507021244 59 282 0.0 0.0 0.00 0.00 0.00 86 1014.3
20260507021042 59 282 0.0 0.0 0.00 0.00 0.00 86 1014.3
20260507020818 59 282 0.0 0.0 0.00 0.00 0.00 86 1014.3
20260507020621 59 282 0.0 0.0 0.00 0.00 0.00 86 1014.3
20260507020408 59 282 0.0 0.0 0.00 0.00 0.00 87 1014.3
20260507020151 59 282 0.0 0.0 0.00 0.00 0.00 87 1014.3
20260507015948 59 282 0.0 0.0 0.00 0.00 0.00 87 1014.3
20260507015740 59 282 0.0 0.0 0.00 0.00 0.00 88 1014.2
20260507015459 59 282 0.0 0.0 0.00 0.00 0.00 88 1014.2
20260507015255 59 282 0.0 0.0 0.00 0.00 0.00 88 1014.2
20260507015048 59 282 0.0 0.0 0.00 0.00 0.00 89 1014.2
20260507014838 58 315 0.0 0.0 0.00 0.00 0.00 89 1014.2
20260507014636 58 312 0.0 0.0 0.00 0.00 0.00 89 1014.2
20260507014438 58 312 0.0 0.0 0.00 0.00 0.00 89 1014.2
20260507014235 58 311 0.0 0.0 0.00 0.00 0.00 89 1014.2
20260507014039 58 313 0.0 0.9 0.00 0.00 0.00 89 1014.2
20260507013833 58 311 0.0 0.9 0.00 0.00 0.00 89 1014.2
20260507013633 58 308 0.0 0.9 0.00 0.00 0.00 90 1014.2
20260507013435 58 308 0.0 1.7 0.00 0.00 0.00 90 1014.2
20260507013235 58 308 0.0 1.7 0.00 0.00 0.00 90 1014.2
20260507012832 58 308 0.0 1.7 0.00 0.00 0.00 90 1014.1
20260507012624 58 312 0.0 1.7 0.00 0.00 0.00 90 1014.1
20260507012423 58 308 0.0 1.7 0.00 0.00 0.00 91 1014.1
20260507012221 58 301 0.0 0.0 0.00 0.00 0.00 91 1014.1
20260507011821 58 302 0.0 0.0 0.00 0.00 0.00 91 1014.1
20260507011623 58 305 0.0 0.9 0.00 0.00 0.00 91 1014.1
20260507011410 58 302 0.0 0.9 0.00 0.00 0.00 91 1014.1
20260507011220 58 305 0.0 0.9 0.00 0.00 0.00 91 1014.1
20260507011023 59 301 0.0 0.9 0.00 0.00 0.00 91 1014.1
20260507010837 59 302 0.0 0.9 0.00 0.00 0.00 91 1014.1
20260507010711 59 302 0.0 0.0 0.00 0.00 0.00 91 1014.1
20260507010417 59 296 0.0 0.0 0.00 0.00 0.00 92 1014.1
20260507010211 59 299 0.0 0.0 0.00 0.00 0.00 92 1014.1
20260507010013 59 299 0.0 0.9 0.00 0.00 0.00 92 1014.1
20260507005803 59 296 0.0 0.9 0.00 0.00 0.00 92 1013.9
20260507005601 59 294 0.0 0.9 0.00 0.00 0.00 92 1013.9
20260507005403 59 292 0.0 0.9 0.00 0.00 0.00 92 1013.9
20260507005155 59 301 0.0 0.9 0.00 0.00 0.00 92 1013.9
20260507004748 58 296 0.0 0.0 0.00 0.00 0.00 93 1013.9
20260507004546 58 299 0.0 0.0 0.00 0.00 0.00 92 1013.9
20260507004348 58 299 0.0 0.0 0.00 0.00 0.00 92 1013.9
20260507004145 58 298 0.0 0.9 0.00 0.00 0.00 91 1013.9
20260507003933 58 299 0.0 0.9 0.00 0.00 0.00 91 1013.9
20260507003732 58 299 0.0 0.9 0.00 0.00 0.00 92 1013.9
20260507003529 58 299 0.0 0.9 0.00 0.00 0.00 92 1013.9
20260507003321 58 299 0.0 0.9 0.00 0.00 0.00 92 1013.9
20260507003118 59 299 0.0 0.0 0.00 0.00 0.00 91 1013.9
20260507002911 59 301 0.0 0.0 0.00 0.00 0.00 91 1013.8
20260507002719 59 304 0.0 0.0 0.00 0.00 0.00 91 1013.8
20260507002520 59 299 0.0 0.0 0.00 0.00 0.00 92 1013.8
20260507002312 59 299 0.0 0.0 0.00 0.00 0.00 92 1013.8
20260507002115 59 302 0.0 0.0 0.00 0.00 0.00 91 1013.8
20260507001908 59 301 0.0 0.0 0.00 0.00 0.00 92 1013.8
20260507001706 59 298 0.0 0.0 0.00 0.00 0.00 91 1013.8
20260507001511 59 299 0.0 0.0 0.00 0.00 0.00 91 1013.8
20260507001310 59 301 0.0 0.0 0.00 0.00 0.00 91 1013.8
20260507001101 59 301 0.0 0.0 0.00 0.00 0.00 91 1013.8
20260507000857 59 299 0.0 0.0 0.00 0.00 0.00 91 1013.8
20260507000640 59 304 0.0 0.0 0.00 0.00 0.00 91 1013.8
20260506235826 59 301 0.0 1.7 0.00 0.00 0.00 91 1013.8
20260506235650 59 302 0.0 1.7 0.00 0.00 0.00 90 1013.8
20260506235438 59 301 0.0 1.7 0.00 0.00 0.00 90 1013.8
20260506235232 59 301 0.0 0.9 0.00 0.00 0.00 90 1013.8
20260506235025 59 302 0.0 0.0 0.00 0.00 0.00 90 1013.8
20260506234828 59 299 0.0 0.0 0.00 0.00 0.00 90 1013.8
20260506234632 59 299 0.0 0.0 0.00 0.00 0.00 90 1013.8
20260506234419 59 295 0.0 0.0 0.00 0.00 0.00 90 1013.9
20260506234216 59 295 0.0 0.0 0.00 0.00 0.00 89 1013.9
20260506234008 59 295 0.0 0.0 0.00 0.00 0.00 89 1013.9
20260506233816 60 294 0.0 0.0 0.00 0.00 0.00 90 1013.9
20260506233654 60 294 0.0 0.0 0.00 0.00 0.00 90 1013.9
20260506233404 60 294 0.0 0.0 0.00 0.00 0.00 90 1013.9
20260506233232 60 292 0.0 0.0 0.00 0.00 0.00 90 1013.9
20260506232954 59 295 0.0 0.0 0.00 0.00 0.00 90 1013.9
20260506232752 59 295 0.0 0.0 0.00 0.00 0.00 90 1014.2
20260506232602 59 299 0.0 0.0 0.00 0.00 0.00 90 1014.2
20260506232351 59 295 0.0 0.0 0.00 0.00 0.00 89 1014.2
20260506232146 59 287 0.0 0.0 0.00 0.00 0.00 89 1014.2
20260506231944 59 299 0.0 0.0 0.00 0.00 0.00 89 1014.2
20260506231814 59 299 0.0 0.9 0.00 0.00 0.00 89 1014.2
20260506231654 59 296 0.0 2.6 0.00 0.00 0.00 89 1014.2
20260506231340 59 301 0.0 2.6 0.00 0.00 0.00 89 1014.3
20260506231139 59 299 0.0 2.6 0.00 0.00 0.00 89 1014.3
20260506230936 59 299 0.0 2.6 0.00 0.00 0.00 89 1014.3
20260506230737 59 299 0.0 2.6 0.00 0.00 0.00 89 1014.3
20260506230550 59 298 0.0 1.7 0.00 0.00 0.00 89 1014.3
20260506230353 59 284 0.0 1.7 0.00 0.00 0.00 89 1014.3
20260506230220 59 289 0.0 1.7 0.00 0.00 0.00 88 1014.3
20260506225936 59 296 0.0 1.7 0.00 0.00 0.00 88 1014.3
20260506225735 58 292 0.0 1.7 0.00 0.00 0.00 88 1014.3
20260506225541 58 295 0.0 1.7 0.00 0.00 0.00 88 1014.3
20260506225335 58 271 0.0 1.7 0.00 0.00 0.00 88 1014.3
20260506225141 58 277 0.0 1.7 0.00 0.00 0.00 87 1014.3
20260506224940 58 272 0.0 0.9 0.00 0.00 0.00 87 1014.3
20260506224738 58 268 0.0 0.0 0.00 0.00 0.00 87 1014.3
20260506224542 58 267 0.0 1.7 0.00 0.00 0.00 87 1014.3
20260506224337 58 267 0.0 1.7 0.00 0.00 0.00 87 1014.2
20260506224130 58 270 0.0 1.7 0.00 0.00 0.00 86 1014.2
20260506223929 58 263 0.0 1.7 0.00 0.00 0.00 86 1014.2
20260506223725 58 257 0.0 1.7 0.00 0.00 0.00 86 1014.2
20260506223320 58 271 0.0 0.9 0.00 0.00 0.00 86 1014.2
20260506223142 58 282 0.0 0.9 0.00 0.00 0.00 86 1014.2
20260506223009 58 291 0.0 0.9 0.00 0.00 0.00 85 1014.2
20260506222725 58 294 0.0 0.9 0.00 0.00 0.00 85 1014.3
20260506222352 58 250 0.0 0.0 0.00 0.00 0.00 85 1014.3
20260506222110 58 272 0.0 0.0 0.00 0.00 0.00 85 1014.3
20260506221919 58 250 0.0 0.9 0.00 0.00 0.00 85 1014.3
20260506221739 58 284 0.0 1.7 0.00 0.00 0.00 84 1014.3
20260506221617 58 264 0.0 1.7 0.00 0.00 0.00 84 1014.3
20260506221308 58 289 0.0 1.7 0.00 0.00 0.00 84 1014.3
20260506221108 58 246 0.0 1.7 0.00 0.00 0.00 83 1014.3
20260506220904 58 246 0.0 1.7 0.00 0.00 0.00 83 1014.3
20260506220703 58 251 0.0 1.7 0.00 0.00 0.00 82 1014.3
20260506220514 58 272 0.0 1.7 0.00 0.00 0.00 82 1014.3
20260506220304 58 250 0.0 1.7 0.00 0.00 0.00 82 1014.3
20260506220125 58 257 0.0 1.7 0.00 0.00 0.00 82 1014.3
20260506215858 58 282 0.0 1.7 0.00 0.00 0.00 82 1014.2
20260506215702 58 250 0.0 0.0 0.00 0.00 0.00 82 1014.2
20260506215307 58 241 0.0 0.0 0.00 0.00 0.00 81 1014.2
20260506215109 58 253 0.0 0.0 0.00 0.00 0.00 81 1014.2
20260506214904 58 253 0.0 0.0 0.00 0.00 0.00 81 1014.2
20260506214703 58 244 0.0 0.0 0.00 0.00 0.00 81 1014.2
20260506214507 58 246 0.0 0.0 0.00 0.00 0.00 81 1014.2
20260506214316 58 253 0.0 1.7 0.00 0.00 0.00 80 1014.1
20260506214150 58 243 0.0 1.7 0.00 0.00 0.00 80 1014.1
20260506213855 58 246 0.0 1.7 0.00 0.00 0.00 80 1014.1
20260506213650 58 244 0.0 1.7 0.00 0.00 0.00 80 1014.1
20260506213246 59 253 0.0 2.6 0.00 0.00 0.00 80 1014.1
20260506213046 59 248 0.0 2.6 0.00 0.00 0.00 80 1014.1
20260506212841 59 257 0.0 2.6 0.00 0.00 0.00 80 1014.1
20260506212647 59 258 0.9 2.6 0.00 0.00 0.00 79 1014.1
20260506212436 59 254 0.9 2.6 0.00 0.00 0.00 79 1014.1
20260506212232 59 250 0.0 1.7 0.00 0.00 0.00 79 1014.1
20260506212030 59 250 0.0 1.7 0.00 0.00 0.00 79 1014.1
20260506211826 59 251 0.0 1.7 0.00 0.00 0.00 79 1014.1
20260506211620 59 246 0.0 1.7 0.00 0.00 0.00 78 1014.1
20260506211414 59 243 0.0 1.7 0.00 0.00 0.00 78 1014.1
20260506211210 59 244 0.0 1.7 0.00 0.00 0.00 78 1014.1
20260506211037 59 247 0.0 1.7 0.00 0.00 0.00 78 1014.1
20260506210830 60 239 0.0 0.0 0.00 0.00 0.00 78 1014.1
20260506210700 60 232 0.0 0.0 0.00 0.00 0.00 78 1014.1
20260506210408 60 232 0.0 0.0 0.00 0.00 0.00 77 1014.1
20260506210204 60 232 0.0 0.0 0.00 0.00 0.00 77 1014.1
20260506210007 60 232 0.0 1.7 0.00 0.00 0.00 77 1014.2
20260506205754 60 236 0.0 1.7 0.00 0.00 0.00 76 1014.3
20260506205559 60 236 0.0 1.7 0.00 0.00 0.00 76 1014.3
20260506205351 61 233 0.0 1.7 0.00 0.00 0.00 76 1014.3
20260506205151 61 234 0.0 1.7 0.00 0.00 0.00 76 1014.3
20260506204954 61 195 0.0 0.0 0.00 0.00 0.00 76 1014.3
20260506204746 61 200 0.0 0.0 0.00 0.00 0.00 76 1014.3
20260506204550 61 229 0.0 0.0 0.00 0.00 0.00 75 1014.3
20260506204345 61 260 0.0 0.0 0.00 0.00 0.00 75 1014.4
20260506204148 61 232 0.0 0.0 0.00 0.00 0.00 75 1014.4
20260506203939 61 233 0.0 0.0 0.00 0.00 0.00 76 1014.4
20260506203740 61 232 0.0 0.0 0.00 0.00 0.00 76 1014.4
20260506203555 61 232 0.0 0.0 0.00 0.00 0.00 76 1014.4
20260506203304 60 232 0.0 0.0 0.00 0.00 0.00 76 1014.4
20260506203102 60 232 0.0 0.0 0.00 0.00 0.00 76 1014.4
20260506202659 60 232 0.0 0.0 0.00 0.00 0.00 77 1014.2
20260506202437 60 232 0.0 0.0 0.00 0.00 0.00 77 1014.2
20260506202239 60 232 0.0 0.0 0.00 0.00 0.00 77 1014.2
20260506202058 60 232 0.0 0.0 0.00 0.00 0.00 77 1014.2
20260506201815 60 229 0.0 0.0 0.00 0.00 0.00 77 1014.2
20260506201601 61 229 0.0 0.0 0.00 0.00 0.00 77 1014.2
20260506201403 61 229 0.0 0.0 0.00 0.00 0.00 77 1014.2
20260506201159 61 230 0.0 0.0 0.00 0.00 0.00 77 1014.2
20260506201010 61 233 0.0 0.0 0.00 0.00 0.00 77 1014.2
20260506200803 61 232 0.0 0.0 0.00 0.00 0.00 77 1014.2
20260506200603 61 232 0.0 0.0 0.00 0.00 0.00 78 1014.2
20260506200156 61 244 0.0 0.0 0.00 0.00 0.00 78 1014.2
20260506195946 61 232 0.0 0.0 0.00 0.00 0.00 78 1014.2
20260506195732 61 230 0.0 0.0 0.00 0.00 0.00 78 1013.8
20260506195528 61 244 0.0 0.0 0.00 0.00 0.00 78 1013.8
20260506195320 61 237 0.0 0.0 0.00 0.00 0.00 78 1013.8
20260506195121 61 240 0.0 0.0 0.00 0.00 0.00 78 1013.8
20260506194910 61 236 0.0 0.0 0.00 0.00 0.00 78 1013.8
20260506194702 61 261 0.0 0.0 0.00 0.00 0.00 78 1013.8
20260506194434 61 232 0.0 0.0 0.00 0.00 0.00 78 1013.8
20260506194235 61 233 0.0 0.0 0.00 0.00 0.00 78 1013.7
20260506194034 61 230 0.0 0.0 0.00 0.00 0.00 78 1013.7
20260506193620 61 229 0.0 0.9 0.00 0.00 0.00 79 1013.7
20260506193414 61 229 0.0 1.7 0.00 0.00 0.00 79 1013.7
20260506193208 61 229 0.0 1.7 0.00 0.00 0.00 79 1013.7
20260506192945 61 232 0.0 1.7 0.00 0.00 0.00 79 1013.7
20260506192730 61 229 0.0 1.7 0.00 0.00 0.00 79 1013.4
20260506192530 61 223 0.0 1.7 0.00 0.00 0.00 79 1013.4
20260506192338 61 223 0.0 0.0 0.00 0.00 0.00 80 1013.4
20260506192122 61 222 0.0 0.9 0.00 0.00 0.00 80 1013.4
20260506191912 61 223 0.0 0.9 0.00 0.00 0.00 80 1013.4
20260506191511 61 232 0.0 1.7 0.00 0.00 0.00 81 1013.4
20260506191307 61 236 0.0 1.7 0.00 0.00 0.00 81 1013.5
20260506191100 61 230 0.0 1.7 0.00 0.00 0.00 81 1013.5
20260506190857 61 232 0.0 1.7 0.00 0.00 0.00 81 1013.5
20260506190438 61 227 0.0 2.6 0.00 0.00 0.00 82 1013.5
20260506190239 61 229 0.0 2.6 0.00 0.00 0.00 82 1013.5
20260506190013 61 227 0.0 2.6 0.00 0.00 0.00 83 1013.5
20260506185811 61 227 0.0 2.6 0.00 0.00 0.00 83 1013.4
20260506185612 61 241 0.0 1.7 0.00 0.00 0.00 83 1013.4
20260506185422 61 241 0.0 1.7 0.00 0.00 0.00 83 1013.4
20260506185216 61 241 0.0 1.7 0.00 0.00 0.00 84 1013.4
20260506185008 61 282 0.0 1.7 0.00 0.00 0.00 84 1013.4
20260506184804 61 241 0.0 1.7 0.00 0.00 0.00 84 1013.4
20260506184604 61 215 0.0 1.7 0.00 0.00 0.00 84 1013.4
20260506184400 61 232 0.0 0.0 0.00 0.00 0.00 84 1013.2
20260506184208 62 248 0.0 2.6 0.00 0.00 0.00 84 1013.2
20260506184002 62 219 0.0 2.6 0.00 0.00 0.00 84 1013.2
20260506183800 62 217 0.0 2.6 0.00 0.00 0.00 84 1013.2
20260506183549 62 217 0.0 2.6 0.00 0.00 0.00 84 1013.2
20260506183346 62 232 0.0 2.6 0.00 0.00 0.00 84 1013.2
20260506182928 62 236 0.0 0.9 0.00 0.00 0.00 84 1013.2
20260506182729 62 236 0.0 1.7 0.00 0.00 0.00 84 1012.8
20260506182526 62 236 0.0 2.6 0.00 0.00 0.00 84 1012.8
20260506182259 62 234 0.0 2.6 0.00 0.00 0.00 84 1012.8
20260506181845 62 219 0.0 2.6 0.00 0.00 0.00 84 1012.8
20260506181619 62 193 0.0 0.9 0.00 0.00 0.00 83 1012.8
20260506181415 62 193 0.0 0.9 0.00 0.00 0.00 83 1012.8
20260506181215 62 189 0.0 2.6 0.00 0.00 0.00 83 1012.7
20260506180819 62 199 0.0 4.3 0.00 0.00 0.00 83 1012.7
20260506180607 62 222 0.0 4.3 0.00 0.00 0.00 83 1012.7
20260506180412 62 210 0.9 5.2 0.00 0.00 0.00 83 1012.7
20260506180211 62 232 0.9 5.2 0.00 0.00 0.00 82 1012.7
20260506175808 62 203 0.9 5.2 0.00 0.00 0.00 82 1012.5
20260506175559 62 203 0.9 5.2 0.00 0.00 0.00 82 1012.5
20260506175331 63 212 0.9 2.6 0.00 0.00 0.00 82 1012.5
20260506175132 63 196 0.9 2.6 0.00 0.00 0.00 82 1012.5
20260506174932 63 196 0.9 2.6 0.00 0.00 0.00 82 1012.5
20260506174733 63 193 0.0 2.6 0.00 0.00 0.00 82 1012.5
20260506174609 63 226 0.0 2.6 0.00 0.00 0.00 81 1012.5
20260506174302 63 202 0.0 4.3 0.00 0.00 0.00 81 1012.4
20260506174104 63 178 0.0 4.3 0.00 0.00 0.00 81 1012.4
20260506173902 63 195 0.0 4.3 0.00 0.00 0.00 81 1012.4
20260506173705 64 160 0.0 4.3 0.00 0.00 0.00 80 1012.4
20260506173505 64 186 0.9 4.3 0.00 0.00 0.00 80 1012.4
20260506173303 64 209 0.9 4.3 0.00 0.00 0.00 80 1012.4
20260506173052 64 189 0.9 4.3 0.00 0.00 0.00 80 1012.4
20260506172851 64 220 0.9 4.3 0.00 0.00 0.00 79 1012.3